Time,TemperatureF,DewpointF,PressureIn,WindDirection,WindDirectionDegrees,WindSpeedMPH,WindSpeedGustMPH,Humidity,HourlyPrecipIn,Conditions,Clouds,dailyrainin,SoftwareType,DateUTC
2013-10-11 00:01:00,41.7,38.7,30.13,NNW,337,0.0,0.0,89,0.00,,,0.00,WUHU21636XXSP,2013-10-11 04:01:00,
2013-10-11 00:02:00,41.7,38.7,30.13,NNW,337,0.0,0.0,89,0.00,,,0.00,WUHU21636XXSP,2013-10-11 04:02:00,
2013-10-11 00:07:00,41.7,38.7,30.13,NNW,337,0.0,0.0,89,0.00,,,0.00,WUHU21636XXSP,2013-10-11 04:07:00,
2013-10-11 00:12:00,41.7,38.7,30.13,NNW,337,0.0,0.0,89,0.00,,,0.00,WUHU21636XXSP,2013-10-11 04:12:00,
2013-10-11 00:17:00,41.5,38.5,30.13,NNW,337,0.0,0.0,89,0.00,,,0.00,WUHU21636XXSP,2013-10-11 04:17:00,
2013-10-11 00:22:00,41.2,38.1,30.13,NNW,337,0.0,0.0,89,0.00,,,0.00,WUHU21636XXSP,2013-10-11 04:22:00,
2013-10-11 00:27:00,41.4,38.7,30.13,NNW,337,0.0,0.0,90,0.00,,,0.00,WUHU21636XXSP,2013-10-11 04:27:00,
2013-10-11 00:32:00,41.5,38.8,30.12,NNW,337,0.0,0.0,90,0.00,,,0.00,WUHU21636XXSP,2013-10-11 04:32:00,
2013-10-11 00:37:00,41.2,38.5,30.12,NNW,337,0.0,0.0,90,0.00,,,0.00,WUHU21636XXSP,2013-10-11 04:37:00,
2013-10-11 00:42:00,41.4,38.7,30.12,NNW,337,0.0,0.0,90,0.00,,,0.00,WUHU21636XXSP,2013-10-11 04:42:00,
2013-10-11 00:47:00,41.2,38.5,30.12,NNW,337,0.0,0.0,90,0.00,,,0.00,WUHU21636XXSP,2013-10-11 04:47:00,
2013-10-11 00:52:00,41.5,38.8,30.12,NNW,337,0.6,13.9,91,0.00,,,0.00,WUHU21636XXSP,2013-10-11 04:52:00,
2013-10-11 00:57:00,41.7,39.2,30.12,NNW,337,0.0,13.9,91,0.00,,,0.00,WUHU21636XXSP,2013-10-11 04:57:00,
2013-10-11 01:02:00,41.7,39.2,30.12,NNW,337,0.0,0.6,91,0.00,,,0.00,WUHU21636XXSP,2013-10-11 05:02:00,
2013-10-11 01:07:00,41.4,38.8,30.12,NNW,337,1.1,1.1,91,0.00,,,0.00,WUHU21636XXSP,2013-10-11 05:07:00,
2013-10-11 01:12:00,41.7,39.2,30.12,NNW,337,0.0,1.1,91,0.00,,,0.00,WUHU21636XXSP,2013-10-11 05:12:00,
2013-10-11 01:17:00,41.7,39.2,30.13,NNW,337,0.0,1.1,91,0.00,,,0.00,WUHU21636XXSP,2013-10-11 05:17:00,
2013-10-11 01:22:00,41.4,38.5,30.13,NNW,337,0.0,0.0,91,0.00,,,0.00,WUHU21636XXSP,2013-10-11 05:22:00,
2013-10-11 01:27:00,40.8,38.1,30.12,NNW,337,0.0,0.0,90,0.00,,,0.00,WUHU21636XXSP,2013-10-11 05:27:00,
2013-10-11 01:32:00,40.6,37.9,30.13,NNW,337,0.0,0.0,90,0.00,,,0.00,WUHU21636XXSP,2013-10-11 05:32:00,
2013-10-11 01:37:00,40.3,37.6,30.13,NNW,337,0.0,0.0,90,0.00,,,0.00,WUHU21636XXSP,2013-10-11 05:37:00,
2013-10-11 01:42:00,40.3,37.6,30.13,NNW,337,0.0,0.0,90,0.00,,,0.00,WUHU21636XXSP,2013-10-11 05:42:00,
2013-10-11 01:47:00,40.3,37.6,30.13,NNW,337,0.0,0.0,90,0.00,,,0.00,WUHU21636XXSP,2013-10-11 05:47:00,
2013-10-11 01:52:00,39.9,37.2,30.13,NNW,337,0.0,0.0,90,0.00,,,0.00,WUHU21636XXSP,2013-10-11 05:52:00,
2013-10-11 01:57:00,39.9,37.2,30.13,NNW,337,0.0,0.0,91,0.00,,,0.00,WUHU21636XXSP,2013-10-11 05:57:00,
2013-10-11 02:02:00,39.9,37.2,30.13,NNW,337,0.0,0.0,91,0.00,,,0.00,WUHU21636XXSP,2013-10-11 06:02:00,
2013-10-11 02:07:00,39.7,37.2,30.13,NNW,337,0.0,0.0,91,0.00,,,0.00,WUHU21636XXSP,2013-10-11 06:07:00,
2013-10-11 02:12:00,39.7,37.2,30.13,NNW,337,0.0,0.0,91,0.00,,,0.00,WUHU21636XXSP,2013-10-11 06:12:00,
2013-10-11 02:17:00,39.7,37.2,30.13,NNW,337,0.0,0.0,91,0.00,,,0.00,WUHU21636XXSP,2013-10-11 06:17:00,
2013-10-11 02:22:00,39.7,37.2,30.13,NNW,337,0.0,0.0,91,0.00,,,0.00,WUHU21636XXSP,2013-10-11 06:22:00,
2013-10-11 02:27:00,39.7,37.2,30.13,NNW,337,0.0,0.0,91,0.00,,,0.00,WUHU21636XXSP,2013-10-11 06:27:00,
2013-10-11 02:32:00,39.7,37.2,30.13,NNW,337,0.0,0.0,91,0.00,,,0.00,WUHU21636XXSP,2013-10-11 06:32:00,
2013-10-11 02:37:00,39.7,37.2,30.13,NNW,337,0.0,0.0,91,0.00,,,0.00,WUHU21636XXSP,2013-10-11 06:37:00,
2013-10-11 02:42:00,39.7,37.2,30.13,NNW,337,0.0,0.0,91,0.00,,,0.00,WUHU21636XXSP,2013-10-11 06:42:00,
2013-10-11 02:47:00,39.4,36.9,30.13,NNW,337,0.0,0.0,91,0.00,,,0.00,WUHU21636XXSP,2013-10-11 06:47:00,
2013-10-11 02:52:00,39.2,36.5,30.13,NNW,337,0.0,0.0,91,0.00,,,0.00,WUHU21636XXSP,2013-10-11 06:52:00,
2013-10-11 02:57:00,38.8,36.3,30.13,NNW,337,0.0,0.0,91,0.00,,,0.00,WUHU21636XXSP,2013-10-11 06:57:00,
2013-10-11 03:02:00,38.8,36.3,30.13,NNW,337,0.0,0.0,91,0.00,,,0.00,WUHU21636XXSP,2013-10-11 07:02:00,
2013-10-11 03:07:00,39.0,36.5,30.13,NNW,337,0.0,0.0,91,0.00,,,0.00,WUHU21636XXSP,2013-10-11 07:07:00,
2013-10-11 03:12:00,39.2,36.7,30.13,NNW,337,0.0,0.0,91,0.00,,,0.00,WUHU21636XXSP,2013-10-11 07:12:00,
2013-10-11 03:17:00,39.0,36.5,30.13,NNW,337,0.0,0.0,91,0.00,,,0.00,WUHU21636XXSP,2013-10-11 07:17:00,
2013-10-11 03:22:00,39.0,36.5,30.13,NNW,337,0.0,0.0,91,0.00,,,0.00,WUHU21636XXSP,2013-10-11 07:22:00,
2013-10-11 03:27:00,38.8,36.3,30.13,NNW,337,0.0,0.0,91,0.00,,,0.00,WUHU21636XXSP,2013-10-11 07:27:00,
2013-10-11 03:32:00,38.8,36.3,30.13,NNW,337,0.0,0.0,91,0.00,,,0.00,WUHU21636XXSP,2013-10-11 07:32:00,
2013-10-11 03:37:00,38.8,36.3,30.13,NNW,337,0.0,0.0,91,0.00,,,0.00,WUHU21636XXSP,2013-10-11 07:37:00,
2013-10-11 03:42:00,38.7,36.1,30.13,NNW,337,0.0,0.0,91,0.00,,,0.00,WUHU21636XXSP,2013-10-11 07:42:00,
2013-10-11 03:47:00,38.5,36.0,30.13,NNW,337,0.0,0.0,91,0.00,,,0.00,WUHU21636XXSP,2013-10-11 07:47:00,
2013-10-11 03:52:00,38.3,35.8,30.13,NNW,337,0.0,0.0,91,0.00,,,0.00,WUHU21636XXSP,2013-10-11 07:52:00,
2013-10-11 03:57:00,38.1,35.6,30.13,NNW,337,0.0,0.0,91,0.00,,,0.00,WUHU21636XXSP,2013-10-11 07:57:00,
2013-10-11 04:02:00,38.1,35.6,30.13,NNW,337,0.0,0.0,91,0.00,,,0.00,WUHU21636XXSP,2013-10-11 08:02:00,
2013-10-11 04:07:00,37.8,35.2,30.13,NNW,337,0.0,0.0,91,0.00,,,0.00,WUHU21636XXSP,2013-10-11 08:07:00,
2013-10-11 04:12:00,37.8,35.2,30.13,NNW,337,0.0,0.0,91,0.00,,,0.00,WUHU21636XXSP,2013-10-11 08:12:00,
2013-10-11 04:17:00,37.6,35.2,30.13,NNW,337,0.0,0.0,91,0.00,,,0.00,WUHU21636XXSP,2013-10-11 08:17:00,
2013-10-11 04:22:00,37.6,35.2,30.13,NNW,337,0.0,0.0,91,0.00,,,0.00,WUHU21636XXSP,2013-10-11 08:22:00,
2013-10-11 04:27:00,37.6,35.2,30.13,NNW,337,0.0,0.0,91,0.00,,,0.00,WUHU21636XXSP,2013-10-11 08:27:00,
2013-10-11 04:32:00,37.6,35.2,30.13,NNW,337,0.0,0.0,91,0.00,,,0.00,WUHU21636XXSP,2013-10-11 08:32:00,
2013-10-11 04:37:00,37.8,35.2,30.13,NNW,337,0.0,0.0,91,0.00,,,0.00,WUHU21636XXSP,2013-10-11 08:37:00,
2013-10-11 04:42:00,37.9,35.4,30.13,NNW,337,0.0,0.0,91,0.00,,,0.00,WUHU21636XXSP,2013-10-11 08:42:00,
2013-10-11 04:47:00,37.9,35.4,30.13,NNW,337,0.0,0.0,91,0.00,,,0.00,WUHU21636XXSP,2013-10-11 08:47:00,
2013-10-11 04:52:00,37.8,35.2,30.13,NNW,337,0.0,0.0,91,0.00,,,0.00,WUHU21636XXSP,2013-10-11 08:52:00,
2013-10-11 04:57:00,37.6,35.1,30.13,NNW,337,0.0,0.0,91,0.00,,,0.00,WUHU21636XXSP,2013-10-11 08:57:00,
2013-10-11 05:02:00,37.2,34.7,30.13,NNW,337,0.0,0.0,91,0.00,,,0.00,WUHU21636XXSP,2013-10-11 09:02:00,
2013-10-11 05:07:00,37.2,34.7,30.13,NNW,337,0.0,0.0,91,0.00,,,0.00,WUHU21636XXSP,2013-10-11 09:07:00,
2013-10-11 05:12:00,37.6,35.1,30.13,NNW,337,0.0,0.0,91,0.00,,,0.00,WUHU21636XXSP,2013-10-11 09:12:00,
2013-10-11 05:17:00,37.8,35.2,30.14,NNW,337,0.0,0.0,91,0.00,,,0.00,WUHU21636XXSP,2013-10-11 09:17:00,
2013-10-11 05:22:00,37.8,35.2,30.14,NNW,337,0.0,0.0,91,0.00,,,0.00,WUHU21636XXSP,2013-10-11 09:22:00,
2013-10-11 05:27:00,37.6,35.1,30.14,NNW,337,0.0,0.0,91,0.00,,,0.00,WUHU21636XXSP,2013-10-11 09:27:00,
2013-10-11 05:32:00,37.2,34.7,30.14,NNW,337,0.0,0.0,91,0.00,,,0.00,WUHU21636XXSP,2013-10-11 09:32:00,
2013-10-11 05:37:00,37.2,34.7,30.14,NNW,337,0.0,0.0,91,0.00,,,0.00,WUHU21636XXSP,2013-10-11 09:37:00,
2013-10-11 05:42:00,37.2,34.7,30.14,NNW,337,0.0,0.0,91,0.00,,,0.00,WUHU21636XXSP,2013-10-11 09:42:00,
2013-10-11 05:47:00,37.2,34.7,30.14,NNW,337,0.0,0.0,91,0.00,,,0.00,WUHU21636XXSP,2013-10-11 09:47:00,
2013-10-11 05:52:00,37.2,34.7,30.14,NNW,337,0.0,0.0,91,0.00,,,0.00,WUHU21636XXSP,2013-10-11 09:52:00,
2013-10-11 05:57:00,37.2,34.7,30.14,NNW,337,0.0,0.0,91,0.00,,,0.00,WUHU21636XXSP,2013-10-11 09:57:00,
2013-10-11 06:02:00,37.2,34.7,30.14,NNW,337,0.0,0.0,91,0.00,,,0.00,WUHU21636XXSP,2013-10-11 10:02:00,
2013-10-11 06:07:00,37.2,34.7,30.14,NNW,337,0.0,0.0,91,0.00,,,0.00,WUHU21636XXSP,2013-10-11 10:07:00,
2013-10-11 06:12:00,37.2,34.7,30.14,NNW,337,0.0,0.0,91,0.00,,,0.00,WUHU21636XXSP,2013-10-11 10:12:00,
2013-10-11 06:17:00,37.0,34.5,30.14,NNW,337,0.0,0.0,91,0.00,,,0.00,WUHU21636XXSP,2013-10-11 10:17:00,
2013-10-11 06:22:00,37.0,34.5,30.14,NNW,337,0.0,0.0,91,0.00,,,0.00,WUHU21636XXSP,2013-10-11 10:22:00,
2013-10-11 06:27:00,37.2,34.7,30.15,NNW,337,0.0,0.0,91,0.00,,,0.00,WUHU21636XXSP,2013-10-11 10:27:00,
2013-10-11 06:32:00,37.0,34.5,30.15,NNW,337,0.0,0.0,91,0.00,,,0.00,WUHU21636XXSP,2013-10-11 10:32:00,
2013-10-11 06:37:00,36.7,34.2,30.15,NNW,337,0.0,0.0,91,0.00,,,0.00,WUHU21636XXSP,2013-10-11 10:37:00,
2013-10-11 06:42:00,36.7,34.3,30.15,NNW,337,0.0,0.0,91,0.00,,,0.00,WUHU21636XXSP,2013-10-11 10:42:00,
2013-10-11 06:47:00,37.0,34.5,30.15,NNW,337,0.0,0.0,91,0.00,,,0.00,WUHU21636XXSP,2013-10-11 10:47:00,
2013-10-11 06:52:00,37.2,34.7,30.15,NNW,337,0.0,0.0,91,0.00,,,0.00,WUHU21636XXSP,2013-10-11 10:52:00,
2013-10-11 06:57:00,37.6,35.1,30.15,NNW,337,0.0,0.0,91,0.00,,,0.00,WUHU21636XXSP,2013-10-11 10:57:00,
2013-10-11 07:02:00,37.2,34.7,30.15,NNW,337,0.0,0.0,91,0.00,,,0.00,WUHU21636XXSP,2013-10-11 11:02:00,
2013-10-11 07:07:00,37.0,34.5,30.15,NNW,337,0.0,0.0,91,0.00,,,0.00,WUHU21636XXSP,2013-10-11 11:07:00,
2013-10-11 07:12:00,37.0,34.5,30.15,NNW,337,0.0,0.0,91,0.00,,,0.00,WUHU21636XXSP,2013-10-11 11:12:00,
2013-10-11 07:17:00,36.7,34.2,30.15,NNW,337,0.0,0.0,91,0.00,,,0.00,WUHU21636XXSP,2013-10-11 11:17:00,
2013-10-11 07:22:00,36.7,34.2,30.15,NNW,337,0.0,0.0,91,0.00,,,0.00,WUHU21636XXSP,2013-10-11 11:22:00,
2013-10-11 07:27:00,36.7,34.2,30.15,NNW,337,0.0,0.0,91,0.00,,,0.00,WUHU21636XXSP,2013-10-11 11:27:00,
2013-10-11 07:32:00,36.7,34.2,30.15,NNW,337,0.0,0.0,91,0.00,,,0.00,WUHU21636XXSP,2013-10-11 11:32:00,
2013-10-11 07:37:00,36.5,34.0,30.15,NNW,337,0.0,0.0,91,0.00,,,0.00,WUHU21636XXSP,2013-10-11 11:37:00,
2013-10-11 07:42:00,36.3,33.8,30.15,NNW,337,0.0,0.0,91,0.00,,,0.00,WUHU21636XXSP,2013-10-11 11:42:00,
2013-10-11 07:47:00,36.1,33.6,30.15,NNW,337,0.0,0.0,91,0.00,,,0.00,WUHU21636XXSP,2013-10-11 11:47:00,
2013-10-11 07:52:00,36.1,33.6,30.15,NNW,337,0.0,0.0,91,0.00,,,0.00,WUHU21636XXSP,2013-10-11 11:52:00,
2013-10-11 07:57:00,36.0,33.4,30.15,NNW,337,0.0,0.0,91,0.00,,,0.00,WUHU21636XXSP,2013-10-11 11:57:00,
2013-10-11 08:02:00,36.1,33.6,30.16,NNW,337,0.0,0.0,91,0.00,,,0.00,WUHU21636XXSP,2013-10-11 12:02:00,
2013-10-11 08:07:00,36.1,33.6,30.15,NNW,337,0.0,0.0,91,0.00,,,0.00,WUHU21636XXSP,2013-10-11 12:07:00,
2013-10-11 08:12:00,36.3,33.8,30.16,NNW,337,0.0,0.0,91,0.00,,,0.00,WUHU21636XXSP,2013-10-11 12:12:00,
2013-10-11 08:17:00,36.7,34.2,30.16,NNW,337,0.0,0.0,91,0.00,,,0.00,WUHU21636XXSP,2013-10-11 12:17:00,
2013-10-11 08:22:00,37.6,35.1,30.16,NNW,337,0.0,0.0,91,0.00,,,0.00,WUHU21636XXSP,2013-10-11 12:22:00,
2013-10-11 08:27:00,37.6,35.1,30.16,NNW,337,0.0,0.0,91,0.00,,,0.00,WUHU21636XXSP,2013-10-11 12:27:00,
2013-10-11 08:32:00,37.8,35.2,30.16,NNW,337,0.0,0.0,91,0.00,,,0.00,WUHU21636XXSP,2013-10-11 12:32:00,
2013-10-11 08:37:00,37.8,35.2,30.16,NNW,337,0.0,0.0,91,0.00,,,0.00,WUHU21636XXSP,2013-10-11 12:37:00,
2013-10-11 08:42:00,38.1,35.6,30.16,NNW,337,0.0,0.0,91,0.00,,,0.00,WUHU21636XXSP,2013-10-11 12:42:00,
2013-10-11 08:47:00,39.4,36.9,30.16,NNW,337,0.0,0.0,91,0.00,,,0.00,WUHU21636XXSP,2013-10-11 12:47:00,
2013-10-11 08:52:00,41.7,39.2,30.16,NNW,337,0.0,0.0,91,0.00,,,0.00,WUHU21636XXSP,2013-10-11 12:52:00,
2013-10-11 08:57:00,44.1,41.5,30.16,NNW,337,0.0,0.0,91,0.00,,,0.00,WUHU21636XXSP,2013-10-11 12:57:00,
2013-10-11 09:02:00,45.3,42.8,30.16,NNW,337,0.0,0.0,91,0.00,,,0.00,WUHU21636XXSP,2013-10-11 13:02:00,
2013-10-11 09:07:00,47.5,45.0,30.16,NNW,337,0.0,0.0,91,0.00,,,0.00,WUHU21636XXSP,2013-10-11 13:07:00,
2013-10-11 09:12:00,48.7,46.2,30.16,NNW,337,0.0,0.0,91,0.00,,,0.00,WUHU21636XXSP,2013-10-11 13:12:00,
2013-10-11 09:17:00,49.5,46.8,30.16,NNW,337,0.0,0.0,91,0.00,,,0.00,WUHU21636XXSP,2013-10-11 13:17:00,
2013-10-11 09:22:00,50.7,47.8,30.16,NNW,337,0.0,0.0,90,0.00,,,0.00,WUHU21636XXSP,2013-10-11 13:22:00,
2013-10-11 09:27:00,51.6,48.7,30.16,NNW,337,0.0,0.0,91,0.00,,,0.00,WUHU21636XXSP,2013-10-11 13:27:00,
2013-10-11 09:32:00,51.4,48.7,30.16,NNW,337,0.0,0.0,91,0.00,,,0.00,WUHU21636XXSP,2013-10-11 13:32:00,
2013-10-11 09:37:00,51.6,48.9,30.16,NNW,337,0.0,0.0,91,0.00,,,0.00,WUHU21636XXSP,2013-10-11 13:37:00,
2013-10-11 09:42:00,52.0,49.3,30.16,NNW,337,0.0,0.0,91,0.00,,,0.00,WUHU21636XXSP,2013-10-11 13:42:00,
2013-10-11 09:47:00,52.7,49.8,30.16,NNW,337,0.0,0.0,90,0.00,,,0.00,WUHU21636XXSP,2013-10-11 13:47:00,
2013-10-11 09:52:00,53.8,50.9,30.16,NNW,337,0.0,0.0,90,0.00,,,0.00,WUHU21636XXSP,2013-10-11 13:52:00,
2013-10-11 09:57:00,54.7,51.8,30.16,NNW,337,0.0,0.0,90,0.00,,,0.00,WUHU21636XXSP,2013-10-11 13:57:00,
2013-10-11 10:02:00,55.8,52.9,30.16,NNW,337,0.0,0.0,90,0.00,,,0.00,WUHU21636XXSP,2013-10-11 14:02:00,
2013-10-11 10:07:00,55.8,52.9,30.16,NNW,337,0.0,6.2,90,0.00,,,0.00,WUHU21636XXSP,2013-10-11 14:07:00,
2013-10-11 10:12:00,56.8,54.0,30.16,NNW,337,0.0,6.2,90,0.00,,,0.00,WUHU21636XXSP,2013-10-11 14:12:00,
2013-10-11 10:17:00,57.7,55.0,30.16,NNW,337,0.0,0.0,91,0.00,,,0.00,WUHU21636XXSP,2013-10-11 14:17:00,
2013-10-11 10:22:00,58.1,55.4,30.16,NNW,337,0.0,0.0,91,0.00,,,0.00,WUHU21636XXSP,2013-10-11 14:22:00,
2013-10-11 10:27:00,58.5,55.2,30.16,NNW,337,0.0,0.0,89,0.00,,,0.00,WUHU21636XXSP,2013-10-11 14:27:00,
2013-10-11 10:32:00,60.1,52.9,30.16,NNW,337,0.0,0.0,77,0.00,,,0.00,WUHU21636XXSP,2013-10-11 14:32:00,
2013-10-11 10:37:00,61.5,53.8,30.16,NNW,337,0.0,6.2,76,0.00,,,0.00,WUHU21636XXSP,2013-10-11 14:37:00,
2013-10-11 10:42:00,63.3,54.1,30.16,NNW,337,0.0,6.2,72,0.00,,,0.00,WUHU21636XXSP,2013-10-11 14:42:00,
2013-10-11 10:47:00,64.2,52.9,30.15,NNW,337,0.0,0.0,67,0.00,,,0.00,WUHU21636XXSP,2013-10-11 14:47:00,
2013-10-11 10:52:00,64.9,53.2,30.15,SW,225,0.0,0.0,66,0.00,,,0.00,WUHU21636XXSP,2013-10-11 14:52:00,
2013-10-11 10:57:00,65.5,50.7,30.15,SW,225,0.0,0.0,60,0.00,,,0.00,WUHU21636XXSP,2013-10-11 14:57:00,
2013-10-11 11:02:00,65.8,51.6,30.15,SSE,157,0.0,0.0,60,0.00,,,0.00,WUHU21636XXSP,2013-10-11 15:02:00,
2013-10-11 11:07:00,66.0,50.0,30.14,SE,135,0.0,0.0,60,0.00,,,0.00,WUHU21636XXSP,2013-10-11 15:07:00,
2013-10-11 11:12:00,66.4,50.5,30.14,SSE,157,0.0,0.0,58,0.00,,,0.00,WUHU21636XXSP,2013-10-11 15:12:00,
2013-10-11 11:17:00,66.9,51.1,30.14,SE,135,0.0,0.0,57,0.00,,,0.00,WUHU21636XXSP,2013-10-11 15:17:00,
2013-10-11 11:22:00,67.5,50.5,30.13,SSE,157,0.0,6.2,55,0.00,,,0.00,WUHU21636XXSP,2013-10-11 15:22:00,
2013-10-11 11:27:00,67.3,49.5,30.14,SSE,157,0.0,6.2,53,0.00,,,0.00,WUHU21636XXSP,2013-10-11 15:27:00,
2013-10-11 11:32:00,67.6,50.7,30.14,SE,135,0.0,0.0,55,0.00,,,0.00,WUHU21636XXSP,2013-10-11 15:32:00,
2013-10-11 11:37:00,68.4,49.5,30.14,SSW,202,1.5,1.5,51,0.00,,,0.00,WUHU21636XXSP,2013-10-11 15:37:00,
2013-10-11 11:42:00,68.5,48.2,30.14,SSE,157,2.6,2.6,48,0.00,,,0.00,WUHU21636XXSP,2013-10-11 15:42:00,
2013-10-11 11:47:00,68.5,48.6,30.14,SSE,157,3.8,3.8,48,0.00,,,0.00,WUHU21636XXSP,2013-10-11 15:47:00,
2013-10-11 11:52:00,68.7,48.7,30.14,SSW,202,0.8,7.6,49,0.00,,,0.00,WUHU21636XXSP,2013-10-11 15:52:00,
2013-10-11 11:57:00,68.7,48.7,30.14,SSE,157,0.0,7.6,47,0.00,,,0.00,WUHU21636XXSP,2013-10-11 15:57:00,
2013-10-11 12:02:00,69.4,47.7,30.14,SSE,157,0.0,4.9,46,0.00,,,0.00,WUHU21636XXSP,2013-10-11 16:02:00,
2013-10-11 12:07:00,69.6,47.7,30.14,SSE,157,2.0,4.9,46,0.00,,,0.00,WUHU21636XXSP,2013-10-11 16:07:00,
2013-10-11 12:12:00,70.0,48.0,30.14,SSE,157,0.0,2.0,46,0.00,,,0.00,WUHU21636XXSP,2013-10-11 16:12:00,
2013-10-11 12:17:00,70.0,48.0,30.13,SE,135,0.0,2.0,45,0.00,,,0.00,WUHU21636XXSP,2013-10-11 16:17:00,
2013-10-11 12:22:00,70.9,48.2,30.13,SSE,157,0.0,0.0,45,0.00,,,0.00,WUHU21636XXSP,2013-10-11 16:22:00,
2013-10-11 12:27:00,71.2,48.1,30.13,SSE,157,2.0,2.0,44,0.00,,,0.00,WUHU21636XXSP,2013-10-11 16:27:00,
2013-10-11 12:32:00,71.2,48.0,30.13,SSW,202,0.6,2.0,41,0.00,,,0.00,WUHU21636XXSP,2013-10-11 16:32:00,
2013-10-11 12:37:00,71.2,47.5,30.13,SSE,157,3.5,4.4,43,0.00,,,0.00,WUHU21636XXSP,2013-10-11 16:37:00,
2013-10-11 12:42:00,71.2,47.5,30.13,SE,135,0.0,4.4,43,0.00,,,0.00,WUHU21636XXSP,2013-10-11 16:42:00,
2013-10-11 12:47:00,71.2,47.5,30.13,SSE,157,0.0,3.5,44,0.00,,,0.00,WUHU21636XXSP,2013-10-11 16:47:00,
2013-10-11 12:52:00,71.4,48.7,30.13,SSE,157,0.0,0.0,45,0.00,,,0.00,WUHU21636XXSP,2013-10-11 16:52:00,
2013-10-11 12:57:00,71.8,47.8,30.13,WSW,247,0.0,0.0,42,0.00,,,0.00,WUHU21636XXSP,2013-10-11 16:57:00,
2013-10-11 13:02:00,72.3,47.8,30.13,South,180,0.0,0.0,42,0.00,,,0.00,WUHU21636XXSP,2013-10-11 17:02:00,
2013-10-11 13:07:00,72.7,48.2,30.12,SSE,157,0.0,0.0,42,0.00,,,0.00,WUHU21636XXSP,2013-10-11 17:07:00,
2013-10-11 13:12:00,72.5,47.3,30.12,SE,135,5.3,5.3,41,0.00,,,0.00,WUHU21636XXSP,2013-10-11 17:12:00,
2013-10-11 13:17:00,72.3,47.1,30.12,SSW,202,0.0,5.3,40,0.00,,,0.00,WUHU21636XXSP,2013-10-11 17:17:00,
2013-10-11 13:22:00,72.1,47.1,30.12,South,180,0.0,5.3,42,0.00,,,0.00,WUHU21636XXSP,2013-10-11 17:22:00,
2013-10-11 13:27:00,72.1,47.1,30.12,South,180,0.0,7.6,41,0.00,,,0.00,WUHU21636XXSP,2013-10-11 17:27:00,
2013-10-11 13:32:00,72.3,46.6,30.12,SE,135,0.0,7.6,40,0.00,,,0.00,WUHU21636XXSP,2013-10-11 17:32:00,
2013-10-11 13:37:00,72.3,46.6,30.12,South,180,2.0,2.0,41,0.00,,,0.00,WUHU21636XXSP,2013-10-11 17:37:00,
2013-10-11 13:42:00,72.3,46.6,30.12,SSE,157,2.4,2.4,40,0.00,,,0.00,WUHU21636XXSP,2013-10-11 17:42:00,
2013-10-11 13:47:00,72.1,46.4,30.11,SSE,157,4.0,4.0,40,0.00,,,0.00,WUHU21636XXSP,2013-10-11 17:47:00,
2013-10-11 13:52:00,72.1,47.1,30.11,SSE,157,0.0,4.0,41,0.00,,,0.00,WUHU21636XXSP,2013-10-11 17:52:00,
2013-10-11 13:57:00,72.5,48.0,30.11,SE,135,0.0,4.0,42,0.00,,,0.00,WUHU21636XXSP,2013-10-11 17:57:00,
2013-10-11 14:02:00,72.7,48.2,30.11,SE,135,0.0,2.9,40,0.00,,,0.00,WUHU21636XXSP,2013-10-11 18:02:00,
2013-10-11 14:07:00,72.5,46.8,30.10,SSE,157,0.0,3.1,40,0.00,,,0.00,WUHU21636XXSP,2013-10-11 18:07:00,
2013-10-11 14:12:00,72.5,46.8,30.10,SSE,157,0.0,4.0,40,0.00,,,0.00,WUHU21636XXSP,2013-10-11 18:12:00,
2013-10-11 14:17:00,72.5,46.8,30.11,SSW,202,0.0,7.7,41,0.00,,,0.00,WUHU21636XXSP,2013-10-11 18:17:00,
2013-10-11 14:22:00,73.0,48.4,30.10,South,180,3.3,7.7,39,0.00,,,0.00,WUHU21636XXSP,2013-10-11 18:22:00,
2013-10-11 14:27:00,73.6,46.6,30.10,SW,225,2.4,7.6,39,0.00,,,0.00,WUHU21636XXSP,2013-10-11 18:27:00,
2013-10-11 14:32:00,73.9,47.3,30.10,SSW,202,2.2,3.3,39,0.00,,,0.00,WUHU21636XXSP,2013-10-11 18:32:00,
2013-10-11 14:37:00,73.7,47.8,30.10,SSE,157,0.0,2.4,40,0.00,,,0.00,WUHU21636XXSP,2013-10-11 18:37:00,
2013-10-11 14:42:00,73.2,47.5,30.10,SSW,202,0.0,2.2,38,0.00,,,0.00,WUHU21636XXSP,2013-10-11 18:42:00,
2013-10-11 14:47:00,73.9,47.3,30.10,WSW,247,0.0,0.0,39,0.00,,,0.00,WUHU21636XXSP,2013-10-11 18:47:00,
2013-10-11 14:52:00,73.9,47.3,30.09,SE,135,0.0,0.0,39,0.00,,,0.00,WUHU21636XXSP,2013-10-11 18:52:00,
2013-10-11 14:57:00,73.6,46.9,30.09,ESE,112,0.0,0.0,39,0.00,,,0.00,WUHU21636XXSP,2013-10-11 18:57:00,
2013-10-11 15:02:00,73.6,47.7,30.09,SSE,157,0.0,0.0,40,0.00,,,0.00,WUHU21636XXSP,2013-10-11 19:02:00,
2013-10-11 15:07:00,73.8,47.8,30.09,SSE,157,0.0,0.0,40,0.00,,,0.00,WUHU21636XXSP,2013-10-11 19:07:00,
2013-10-11 15:12:00,73.6,47.7,30.09,ESE,112,0.0,0.0,40,0.00,,,0.00,WUHU21636XXSP,2013-10-11 19:12:00,
2013-10-11 15:17:00,73.2,46.6,30.09,SE,135,0.0,0.0,39,0.00,,,0.00,WUHU21636XXSP,2013-10-11 19:17:00,
2013-10-11 15:22:00,73.6,47.7,30.09,SE,135,0.0,0.0,40,0.00,,,0.00,WUHU21636XXSP,2013-10-11 19:22:00,
2013-10-11 15:27:00,73.9,47.7,30.09,SE,135,0.0,0.0,40,0.00,,,0.00,WUHU21636XXSP,2013-10-11 19:27:00,
2013-10-11 15:32:00,74.1,47.5,30.09,SSW,202,0.0,0.0,38,0.00,,,0.00,WUHU21636XXSP,2013-10-11 19:32:00,
2013-10-11 15:37:00,74.5,47.8,30.09,SW,225,0.0,0.0,39,0.00,,,0.00,WUHU21636XXSP,2013-10-11 19:37:00,
2013-10-11 15:42:00,75.0,47.5,30.09,WSW,247,0.0,0.0,38,0.00,,,0.00,WUHU21636XXSP,2013-10-11 19:42:00,
2013-10-11 15:47:00,75.6,47.3,30.09,WSW,247,0.0,0.0,38,0.00,,,0.00,WUHU21636XXSP,2013-10-11 19:47:00,
2013-10-11 15:52:00,75.4,47.1,30.09,SSE,157,0.0,0.0,37,0.00,,,0.00,WUHU21636XXSP,2013-10-11 19:52:00,
2013-10-11 15:57:00,75.0,48.2,30.09,SSE,157,0.0,0.0,40,0.00,,,0.00,WUHU21636XXSP,2013-10-11 19:57:00,
2013-10-11 16:02:00,75.0,47.5,30.09,South,180,0.0,0.0,38,0.00,,,0.00,WUHU21636XXSP,2013-10-11 20:02:00,
2013-10-11 16:07:00,74.8,47.3,30.09,SSE,157,0.0,0.0,38,0.00,,,0.00,WUHU21636XXSP,2013-10-11 20:07:00,
2013-10-11 16:12:00,75.4,47.8,30.09,SSE,157,0.0,0.0,38,0.00,,,0.00,WUHU21636XXSP,2013-10-11 20:12:00,
2013-10-11 16:17:00,75.7,48.2,30.09,WSW,247,0.0,0.0,38,0.00,,,0.00,WUHU21636XXSP,2013-10-11 20:17:00,
2013-10-11 16:22:00,76.1,47.7,30.09,WSW,247,0.0,0.0,37,0.00,,,0.00,WUHU21636XXSP,2013-10-11 20:22:00,
2013-10-11 16:27:00,76.1,47.7,30.08,WSW,247,0.0,0.0,37,0.00,,,0.00,WUHU21636XXSP,2013-10-11 20:27:00,
2013-10-11 16:32:00,75.9,47.7,30.08,WSW,247,0.0,0.0,35,0.00,,,0.00,WUHU21636XXSP,2013-10-11 20:32:00,
2013-10-11 16:37:00,76.1,47.7,30.08,WSW,247,0.0,0.0,37,0.00,,,0.00,WUHU21636XXSP,2013-10-11 20:37:00,
2013-10-11 16:42:00,76.3,47.8,30.08,WSW,247,0.0,0.0,37,0.00,,,0.00,WUHU21636XXSP,2013-10-11 20:42:00,
2013-10-11 16:47:00,75.9,47.7,30.08,WSW,247,0.0,0.0,37,0.00,,,0.00,WUHU21636XXSP,2013-10-11 20:47:00,
2013-10-11 16:52:00,75.6,48.0,30.08,WSW,247,0.0,0.0,38,0.00,,,0.00,WUHU21636XXSP,2013-10-11 20:52:00,
2013-10-11 16:57:00,75.7,48.2,30.08,WSW,247,0.0,0.0,38,0.00,,,0.00,WUHU21636XXSP,2013-10-11 20:57:00,
2013-10-11 17:02:00,75.6,47.3,30.08,WSW,247,0.0,0.0,37,0.00,,,0.00,WUHU21636XXSP,2013-10-11 21:02:00,
2013-10-11 17:07:00,75.4,47.1,30.06,WSW,247,0.0,0.0,38,0.00,,,0.00,WUHU21636XXSP,2013-10-11 21:07:00,
2013-10-11 17:12:00,75.2,48.4,30.07,WSW,247,0.0,0.0,39,0.00,,,0.00,WUHU21636XXSP,2013-10-11 21:12:00,
2013-10-11 17:17:00,74.3,48.4,30.07,SSE,157,0.0,0.0,40,0.00,,,0.00,WUHU21636XXSP,2013-10-11 21:17:00,
2013-10-11 17:22:00,73.9,48.0,30.06,SSE,157,0.0,0.0,41,0.00,,,0.00,WUHU21636XXSP,2013-10-11 21:22:00,
2013-10-11 17:27:00,73.8,48.6,30.06,SSE,157,0.0,0.0,40,0.00,,,0.00,WUHU21636XXSP,2013-10-11 21:27:00,
2013-10-11 17:32:00,73.8,49.1,30.06,SSE,157,0.0,0.0,42,0.00,,,0.00,WUHU21636XXSP,2013-10-11 21:32:00,
2013-10-11 17:37:00,73.6,50.2,30.06,SSE,157,0.0,0.0,44,0.00,,,0.00,WUHU21636XXSP,2013-10-11 21:37:00,
2013-10-11 17:42:00,73.2,49.3,30.05,SSE,157,0.0,0.0,43,0.00,,,0.00,WUHU21636XXSP,2013-10-11 21:42:00,
2013-10-11 17:47:00,72.7,48.7,30.05,SE,135,0.0,0.0,43,0.00,,,0.00,WUHU21636XXSP,2013-10-11 21:47:00,
2013-10-11 17:52:00,72.5,49.1,30.06,SE,135,0.0,0.0,44,0.00,,,0.00,WUHU21636XXSP,2013-10-11 21:52:00,
2013-10-11 17:57:00,72.1,49.5,30.05,SE,135,0.0,0.0,45,0.00,,,0.00,WUHU21636XXSP,2013-10-11 21:57:00,
2013-10-11 18:02:00,71.8,49.6,30.05,SE,135,0.0,0.0,46,0.00,,,0.00,WUHU21636XXSP,2013-10-11 22:02:00,
2013-10-11 18:07:00,71.1,48.4,30.06,SE,135,0.0,0.0,45,0.00,,,0.00,WUHU21636XXSP,2013-10-11 22:07:00,
2013-10-11 18:12:00,70.5,48.6,30.06,SE,135,0.0,0.0,46,0.00,,,0.00,WUHU21636XXSP,2013-10-11 22:12:00,
2013-10-11 18:17:00,70.3,48.2,30.06,SE,135,0.0,0.0,46,0.00,,,0.00,WUHU21636XXSP,2013-10-11 22:17:00,
2013-10-11 18:22:00,69.8,48.6,30.06,SE,135,0.0,0.0,47,0.00,,,0.00,WUHU21636XXSP,2013-10-11 22:22:00,
2013-10-11 18:27:00,69.4,48.2,30.06,SE,135,0.0,0.0,47,0.00,,,0.00,WUHU21636XXSP,2013-10-11 22:27:00,
2013-10-11 18:32:00,69.1,48.6,30.06,SE,135,0.0,0.0,48,0.00,,,0.00,WUHU21636XXSP,2013-10-11 22:32:00,
2013-10-11 18:37:00,68.5,48.6,30.06,SE,135,0.0,0.0,49,0.00,,,0.00,WUHU21636XXSP,2013-10-11 22:37:00,
2013-10-11 18:42:00,67.8,47.8,30.06,SE,135,0.0,0.0,49,0.00,,,0.00,WUHU21636XXSP,2013-10-11 22:42:00,
2013-10-11 18:47:00,66.7,47.5,30.06,SE,135,0.0,0.0,50,0.00,,,0.00,WUHU21636XXSP,2013-10-11 22:47:00,
2013-10-11 18:52:00,66.0,46.9,30.06,SE,135,0.0,0.0,50,0.00,,,0.00,WUHU21636XXSP,2013-10-11 22:52:00,
2013-10-11 18:57:00,65.5,46.4,30.05,SE,135,0.0,0.0,50,0.00,,,0.00,WUHU21636XXSP,2013-10-11 22:57:00,
2013-10-11 19:02:00,64.9,46.2,30.05,SE,135,0.0,0.0,51,0.00,,,0.00,WUHU21636XXSP,2013-10-11 23:02:00,
2013-10-11 19:07:00,64.2,45.5,30.05,SE,135,0.0,0.0,51,0.00,,,0.00,WUHU21636XXSP,2013-10-11 23:07:00,
2013-10-11 19:12:00,63.9,45.3,30.05,SE,135,0.0,0.0,51,0.00,,,0.00,WUHU21636XXSP,2013-10-11 23:12:00,
2013-10-11 19:17:00,63.5,45.3,30.05,SE,135,0.0,0.0,52,0.00,,,0.00,WUHU21636XXSP,2013-10-11 23:17:00,
2013-10-11 19:22:00,63.0,45.0,30.05,SE,135,0.0,0.0,52,0.00,,,0.00,WUHU21636XXSP,2013-10-11 23:22:00,
2013-10-11 19:27:00,62.4,45.0,30.05,SE,135,0.0,0.0,53,0.00,,,0.00,WUHU21636XXSP,2013-10-11 23:27:00,
2013-10-11 19:32:00,61.7,45.0,30.05,SE,135,0.0,0.0,54,0.00,,,0.00,WUHU21636XXSP,2013-10-11 23:32:00,
2013-10-11 19:37:00,60.4,44.6,30.05,SE,135,0.0,0.0,56,0.00,,,0.00,WUHU21636XXSP,2013-10-11 23:37:00,
2013-10-11 19:42:00,59.4,45.0,30.05,SE,135,0.0,0.0,59,0.00,,,0.00,WUHU21636XXSP,2013-10-11 23:42:00,
2013-10-11 19:47:00,58.6,44.2,30.05,SE,135,0.0,0.0,59,0.00,,,0.00,WUHU21636XXSP,2013-10-11 23:47:00,
2013-10-11 19:52:00,57.6,44.6,30.05,SE,135,0.0,0.0,62,0.00,,,0.00,WUHU21636XXSP,2013-10-11 23:52:00,
2013-10-11 19:57:00,56.8,44.6,30.05,SE,135,0.0,0.0,64,0.00,,,0.00,WUHU21636XXSP,2013-10-11 23:57:00,
2013-10-11 20:02:00,56.1,44.4,30.05,SE,135,0.0,0.0,65,0.00,,,0.00,WUHU21636XXSP,2013-10-12 00:02:00,
2013-10-11 20:07:00,55.0,45.0,30.05,SE,135,0.0,0.0,69,0.00,,,0.00,WUHU21636XXSP,2013-10-12 00:07:00,
2013-10-11 20:12:00,54.1,44.8,30.05,SE,135,1.1,1.1,71,0.00,,,0.00,WUHU21636XXSP,2013-10-12 00:12:00,
2013-10-11 20:17:00,53.8,44.4,30.05,SE,135,0.0,1.1,71,0.00,,,0.00,WUHU21636XXSP,2013-10-12 00:17:00,
2013-10-11 20:22:00,53.2,44.1,30.06,SE,135,0.0,1.1,71,0.00,,,0.00,WUHU21636XXSP,2013-10-12 00:22:00,
2013-10-11 20:27:00,52.9,43.7,30.06,SE,135,0.0,0.0,71,0.00,,,0.00,WUHU21636XXSP,2013-10-12 00:27:00,
2013-10-11 20:32:00,52.5,43.3,30.05,SE,135,0.0,0.0,71,0.00,,,0.00,WUHU21636XXSP,2013-10-12 00:32:00,
2013-10-11 20:37:00,51.8,43.0,30.06,SE,135,0.0,0.0,72,0.00,,,0.00,WUHU21636XXSP,2013-10-12 00:37:00,
2013-10-11 20:42:00,51.4,43.3,30.05,SE,135,2.0,2.0,74,0.00,,,0.00,WUHU21636XXSP,2013-10-12 00:42:00,
2013-10-11 20:47:00,51.4,43.3,30.06,SE,135,0.0,2.0,75,0.00,,,0.00,WUHU21636XXSP,2013-10-12 00:47:00,
2013-10-11 20:52:00,52.2,44.4,30.06,SE,135,0.0,2.0,75,0.00,,,0.00,WUHU21636XXSP,2013-10-12 00:52:00,
2013-10-11 20:57:00,52.2,44.1,30.06,SE,135,0.0,0.0,74,0.00,,,0.00,WUHU21636XXSP,2013-10-12 00:57:00,
2013-10-11 21:02:00,51.6,43.9,30.06,SE,135,0.0,0.0,75,0.00,,,0.00,WUHU21636XXSP,2013-10-12 01:02:00,
2013-10-11 21:07:00,51.3,43.5,30.06,SE,135,0.0,0.0,75,0.00,,,0.00,WUHU21636XXSP,2013-10-12 01:07:00,
2013-10-11 21:12:00,50.5,42.4,30.06,SE,135,0.0,0.0,74,0.00,,,0.00,WUHU21636XXSP,2013-10-12 01:12:00,
2013-10-11 21:17:00,50.0,43.3,30.07,SE,135,0.0,0.0,78,0.00,,,0.00,WUHU21636XXSP,2013-10-12 01:17:00,
2013-10-11 21:22:00,49.8,43.0,30.06,SE,135,0.0,0.0,79,0.00,,,0.00,WUHU21636XXSP,2013-10-12 01:22:00,
2013-10-11 21:27:00,49.3,42.6,30.06,SE,135,0.0,0.0,78,0.00,,,0.00,WUHU21636XXSP,2013-10-12 01:27:00,
2013-10-11 21:32:00,48.7,42.1,30.06,SE,135,0.0,0.0,78,0.00,,,0.00,WUHU21636XXSP,2013-10-12 01:32:00,
2013-10-11 21:37:00,48.4,42.4,30.06,SE,135,0.0,0.0,80,0.00,,,0.00,WUHU21636XXSP,2013-10-12 01:37:00,
2013-10-11 21:42:00,47.8,42.1,30.06,SE,135,0.0,0.4,83,0.00,,,0.00,WUHU21636XXSP,2013-10-12 01:42:00,
2013-10-11 21:47:00,49.1,44.4,30.06,SE,135,2.0,2.0,84,0.00,,,0.00,WUHU21636XXSP,2013-10-12 01:47:00,
2013-10-11 21:52:00,50.5,45.7,30.06,SE,135,2.0,3.5,84,0.00,,,0.00,WUHU21636XXSP,2013-10-12 01:52:00,
2013-10-11 21:57:00,52.2,46.8,30.05,ESE,112,4.9,4.9,80,0.00,,,0.00,WUHU21636XXSP,2013-10-12 01:57:00,
2013-10-11 22:03:00,53.6,46.6,30.05,ESE,112,0.0,4.9,77,0.00,,,0.00,WUHU21636XXSP,2013-10-12 02:03:00,
2013-10-11 22:08:00,54.0,46.4,30.05,ESE,112,0.0,4.9,76,0.00,,,0.00,WUHU21636XXSP,2013-10-12 02:08:00,
2013-10-11 22:13:00,54.0,46.4,30.05,ESE,112,0.8,0.8,75,0.00,,,0.00,WUHU21636XXSP,2013-10-12 02:13:00,
2013-10-11 22:18:00,53.8,45.5,30.05,ESE,112,0.0,0.8,74,0.00,,,0.00,WUHU21636XXSP,2013-10-12 02:18:00,
2013-10-11 22:23:00,53.2,45.1,30.06,ESE,112,0.0,0.8,74,0.00,,,0.00,WUHU21636XXSP,2013-10-12 02:23:00,
2013-10-11 22:28:00,52.0,44.2,30.06,ESE,112,0.0,0.0,75,0.00,,,0.00,WUHU21636XXSP,2013-10-12 02:28:00,
2013-10-11 22:33:00,51.6,44.2,30.06,ESE,112,0.0,0.0,76,0.00,,,0.00,WUHU21636XXSP,2013-10-12 02:33:00,
2013-10-11 22:38:00,51.4,44.1,30.06,ESE,112,0.0,0.0,77,0.00,,,0.00,WUHU21636XXSP,2013-10-12 02:38:00,
2013-10-11 22:43:00,50.2,43.5,30.06,ESE,112,0.0,0.0,78,0.00,,,0.00,WUHU21636XXSP,2013-10-12 02:43:00,
2013-10-11 22:48:00,49.6,43.3,30.06,ESE,112,0.0,7.7,79,0.00,,,0.00,WUHU21636XXSP,2013-10-12 02:48:00,
2013-10-11 22:53:00,49.1,42.4,30.06,ESE,112,0.0,7.7,78,0.00,,,0.00,WUHU21636XXSP,2013-10-12 02:53:00,
2013-10-11 22:58:00,48.2,41.9,30.06,ESE,112,0.0,0.0,79,0.00,,,0.00,WUHU21636XXSP,2013-10-12 02:58:00,
2013-10-11 23:03:00,47.7,41.4,30.05,ESE,112,0.0,0.0,79,0.00,,,0.00,WUHU21636XXSP,2013-10-12 03:03:00,
2013-10-11 23:08:00,47.3,41.0,30.06,ESE,112,0.0,0.0,79,0.00,,,0.00,WUHU21636XXSP,2013-10-12 03:08:00,
2013-10-11 23:13:00,46.9,40.8,30.05,ESE,112,0.0,0.0,80,0.00,,,0.00,WUHU21636XXSP,2013-10-12 03:13:00,
2013-10-11 23:18:00,46.2,41.0,30.06,ESE,112,0.0,0.0,82,0.00,,,0.00,WUHU21636XXSP,2013-10-12 03:18:00,
2013-10-11 23:23:00,46.0,41.2,30.06,ESE,112,0.0,0.0,84,0.00,,,0.00,WUHU21636XXSP,2013-10-12 03:23:00,
2013-10-11 23:28:00,45.5,40.9,30.06,ESE,112,0.0,0.0,84,0.00,,,0.00,WUHU21636XXSP,2013-10-12 03:28:00,
2013-10-11 23:33:00,45.1,40.5,30.06,ESE,112,0.0,0.0,84,0.00,,,0.00,WUHU21636XXSP,2013-10-12 03:33:00,
2013-10-11 23:38:00,45.0,40.1,30.06,ESE,112,0.0,0.0,84,0.00,,,0.00,WUHU21636XXSP,2013-10-12 03:38:00,
2013-10-11 23:43:00,45.0,40.1,30.06,ESE,112,0.0,0.0,85,0.00,,,0.00,WUHU21636XXSP,2013-10-12 03:43:00,
2013-10-11 23:48:00,44.2,40.3,30.05,ESE,112,0.0,0.0,86,0.00,,,0.00,WUHU21636XXSP,2013-10-12 03:48:00,
2013-10-11 23:53:00,43.9,39.9,30.06,ESE,112,0.0,0.0,86,0.00,,,0.00,WUHU21636XXSP,2013-10-12 03:53:00,
2013-10-11 23:58:00,43.9,39.9,30.05,ESE,112,0.0,0.0,86,0.00,,,0.00,WUHU21636XXSP,2013-10-12 03:58:00,